Hourly Data Report for September 13, 2010

PETERBOROUGH AWOS
ONTARIO

44°14'00.000" N
78°22'00.000" W
191.40 m
6166420

Download Data

Hourly Data (September 2010)
Hourly Data Report for September 13, 2010
TIME
LST
Temp Definition
°C
Dew Point Definition
°C
Rel Hum Definition
%
Precip. Amount Definition
mm

Wind Dir Definition
10's deg

Wind Spd Definition
km/h
Visibility Definition
km
Stn Press Definition
kPa
Hmdx Definition


Wind Chill Definition


Weather Definition


00:00 8.2 8.1 99   LegendMM LegendMM 15.0 99.08      
01:00 7.5 7.5 100   LegendMM LegendMM 15.0 99.04      
02:00 13.5 10.2 80   LegendMM LegendMM 15.0 99.08      
03:00 13.7 10.2 79   LegendMM LegendMM 15.0 99.05      
04:00 13.6 10.5 82   LegendMM LegendMM 15.0 99.07      
05:00 11.8 11.5 98   LegendMM LegendMM 8.0 98.99     Rain
06:00 9.7 9.7 100   LegendMM LegendMM 0.6 98.94      
07:00 11.1 11.1 100   LegendMM LegendMM 15.0 98.95      
08:00 14.2 12.4 89   LegendMM LegendMM 15.0 98.92      
09:00 17.0 12.8 76   LegendMM LegendMM 15.0 98.89      
10:00 18.4 13.4 73   LegendMM LegendMM 15.0 98.88      
11:00 19.5 12.1 62   LegendMM LegendMM 15.0 98.84      
12:00 19.8 12.4 62   LegendMM LegendMM 15.0 98.81      
13:00 20.5 11.5 56   LegendMM LegendMM 15.0 98.79      
14:00 21.4 9.6 47   LegendMM LegendMM 15.0 98.74      
15:00 21.8 8.7 43   LegendMM LegendMM 15.0 98.70      
16:00 20.8 8.7 46   LegendMM LegendMM 15.0 98.70      
17:00 20.5 8.8 47   LegendMM LegendMM 15.0 98.73      
18:00 19.3 9.7 54   LegendMM LegendMM 15.0 98.78      
19:00 17.8 10.4 62   LegendMM LegendMM 15.0 98.83      
20:00 16.2 10.6 69   LegendMM LegendMM 15.0 98.89      
21:00 15.4 11.3 77   LegendMM LegendMM 15.0 98.88      
22:00 13.2 10.9 86   LegendMM LegendMM 15.0 98.87      
23:00 13.5 10.4 82   LegendMM LegendMM 15.0 98.87      

Notes on Data Quality.

Legend

  • E = Estimated
  • M = Missing
  • NA = Not Available*
  • [empty] = Indicates an unobserved value
Date modified: